GFSFLT2_prec_cloud_003.txt.gz
Cloud_Cover
100 100 100 100 100 100 100 100 100 100 100 100 100 100 100 92 34 5 5 5 5 5 12 82 93 95 99
100 100 100 100 100 100 100 100 100 100 100 100 100 100 100 60 8 5 5 5 5 5 5 82 100 99 100
100 100 100 100 100 100 100 100 100 100 100 100 100 100 100 8 12 5 5 6 5 5 7 95 97 100 100
100 100 100 100 100 100 100 100 100 100 100 100 51 99 69 92 34 5 15 66 5 6 96 95 69 100 100
100 100 100 100 100 100 100 100 100 100 100 98 84 83 78 100 47 92 53 72 31 16 100 86 81 99 100
100 100 100 100 100 100 100 100 100 100 100 100 66 65 99 75 5 13 97 100 68 74 50 67 87 60 68
100 100 100 100 100 100 100 100 100 100 100 99 85 71 100 82 70 76 100 100 85 6 5 9 12 50 49
100 100 100 100 100 100 100 100 100 100 100 72 83 100 100 64 90 100 100 100 92 5 5 5 15 13 8
100 100 100 100 100 100 100 100 100 100 100 93 100 100 91 100 93 100 100 100 6 5 5 5 18 5 5
100 100 100 100 100 100 100 100 100 100 100 100 100 100 100 100 100 100 100 18 4 0 5 5 5 5 5
100 100 100 100 100 100 100 100 100 100 100 100 100 100 100 100 100 100 26 5 1 0 0 3 5 71 21
100 100 100 100 100 100 100 100 100 100 100 100 100 100 89 100 100 72 5 0 0 0 0 0 3 5 63
100 100 100 100 100 100 100 100 100 100 100 100 99 95 90 100 100 8 5 0 0 0 0 0 0 0 4
100 100 100 100 100 100 100 100 100 100 100 100 94 73 100 97 96 86 5 19 0 0 0 0 0 0 5
100 100 100 100 100 100 100 100 100 100 100 86 76 97 79 35 88 61 5 5 0 0 0 0 0 0 5
100 100 100 100 100 100 100 100 100 100 88 91 92 83 77 22 8 9 5 0 0 0 1 5 1 10 27
100 100 100 100 100 100 100 100 100 82 24 90 96 100 74 5 2 4 5 0 0 0 5 5 90 9 5

GFSFLT2_prec_cloud_006.txt.gz
Cloud_Cover
100 100 100 71 100 100 100 100 94 100 100 100 100 100 100 100 100 100 100 28 5 25 5 33 79 6 7
100 100 100 100 100 100 100 100 100 100 100 100 100 100 91 79 100 100 100 87 41 18 99 79 69 14 100
100 100 100 100 100 100 100 100 100 100 100 100 100 100 94 100 100 94 29 98 91 100 97 96 50 100 100
100 100 100 100 100 100 100 100 100 100 100 100 100 100 99 100 91 98 100 100 100 100 54 48 78 100 100
100 100 100 100 100 100 100 100 100 100 100 100 100 99 100 100 100 100 100 100 100 41 82 52 79 100 96
100 100 100 100 100 100 100 100 100 100 100 100 100 100 100 100 100 100 100 100 45 100 90 45 100 71 62
100 100 100 100 100 100 100 100 100 100 100 100 100 99 100 100 100 100 100 100 100 100 97 42 70 80 76
94 100 100 100 100 100 100 100 100 100 100 100 100 100 100 100 100 100 100 100 100 90 96 20 5 50 69
79 100 100 100 100 100 100 100 100 100 100 100 100 100 100 100 100 100 100 100 85 21 93 46 49 29 12
100 100 100 100 100 100 100 100 100 100 100 100 100 100 100 100 100 100 100 97 69 95 91 5 5 5 5
100 100 100 100 100 100 100 100 100 100 100 100 100 100 100 100 100 100 100 63 89 14 5 2 2 5 5
100 100 100 100 100 100 100 100 100 100 100 100 100 100 100 100 100 88 30 46 5 10 2 0 0 2 22
100 100 100 100 100 100 100 100 100 100 100 100 100 100 100 100 99 44 51 5 5 4 0 0 0 0 0
100 100 100 100 100 100 100 100 100 100 100 100 100 100 100 89 51 91 37 41 4 1 0 0 0 0 0
100 100 100 100 100 100 100 100 100 100 100 100 100 100 82 19 95 62 39 37 5 5 0 0 0 0 0
100 100 100 100 100 100 100 100 100 100 100 100 100 90 32 5 10 20 60 6 5 1 0 1 0 1 2
100 100 100 100 100 100 100 100 100 100 100 100 99 87 100 86 5 4 14 5 5 5 5 5 5 67 88

GFSFLT2_prec_cloud_009.txt.gz
Cloud_Cover
62 100 100 98 99 100 100 100 100 100 100 100 100 100 100 100 100 100 100 88 80 5 13 100 98 34 5
100 100 100 100 100 100 100 100 100 100 100 100 100 100 100 100 100 100 100 100 53 5 75 100 100 22 5
100 100 100 100 100 100 100 100 100 100 100 100 100 100 100 100 100 100 100 100 84 82 100 100 78 5 5
98 100 100 100 100 100 100 100 100 100 100 100 100 100 100 100 100 100 100 100 100 100 100 100 81 100 100
99 49 66 100 100 100 100 100 100 100 100 100 100 100 100 100 100 100 100 100 100 100 100 82 100 96 100
96 100 61 69 100 100 100 100 100 100 100 100 100 100 100 100 100 100 100 100 100 100 70 100 99 100 100
100 100 100 100 100 100 100 100 100 100 100 100 100 100 100 100 100 100 97 100 100 100 100 100 100 100 99
100 37 64 100 100 100 100 100 100 100 100 100 100 100 100 100 100 100 100 100 100 100 100 100 100 100 42
74 84 83 98 100 100 100 100 100 100 100 100 100 100 100 100 100 100 100 100 100 100 100 100 100 48 79
100 100 78 65 100 100 100 100 100 100 100 100 100 100 100 100 100 100 100 100 100 100 100 100 99 76 6
100 100 100 100 100 100 100 100 100 100 100 100 100 100 100 100 100 100 100 100 100 100 100 93 51 28 5
100 100 100 100 100 100 100 100 100 100 100 100 100 100 100 100 100 100 100 100 100 100 100 94 8 2 5
100 100 100 100 100 100 100 100 100 100 100 100 100 100 100 100 100 100 100 100 95 98 98 5 0 0 2
100 100 100 100 100 100 100 100 100 100 100 100 100 100 100 100 100 100 100 100 100 47 5 2 0 0 0
100 100 100 100 100 100 100 100 100 100 100 100 100 100 100 100 100 100 100 86 63 5 5 5 1 0 0
100 100 100 100 100 100 100 100 100 100 100 100 100 100 94 94 99 100 89 99 46 5 5 5 1 0 4
100 100 100 100 100 100 100 100 100 100 100 100 100 94 96 66 7 78 84 6 5 5 5 5 45 9 53

GFSFLT2_prec_cloud_012.txt.gz
Cloud_Cover
52 5 21 94 100 100 100 100 100 100 100 97 100 100 91 100 100 100 100 100 100 100 98 77 68 56 100
92 86 25 6 0 57 97 100 100 100 100 100 100 100 100 100 100 100 100 100 100 100 100 100 100 72 97
67 29 27 52 20 19 41 75 96 77 100 100 100 100 100 100 100 100 100 100 100 100 100 100 94 50 85
100 100 79 98 100 96 100 92 99 100 100 100 100 100 100 100 100 100 100 100 100 100 100 100 81 100 100
100 96 100 100 100 100 98 54 50 100 100 100 100 100 100 100 100 100 100 100 100 100 100 100 100 100 100
100 100 100 99 100 89 100 100 100 93 100 100 100 100 100 100 100 100 100 100 100 100 100 100 100 100 100
100 100 100 100 100 100 98 99 100 100 100 100 100 100 100 100 100 100 100 100 100 100 100 100 100 100 100
100 100 100 100 100 100 100 100 100 100 100 100 100 100 100 100 100 100 100 100 100 100 100 100 100 100 100
100 100 100 100 100 100 100 100 100 100 100 100 100 100 100 100 100 100 100 100 100 100 100 100 100 100 100
100 100 100 100 100 100 100 100 100 100 100 100 100 100 100 100 100 100 100 100 100 100 100 100 100 100 100
100 100 100 100 100 100 100 100 100 100 100 100 100 100 100 100 100 100 100 100 100 100 100 100 100 100 100
100 100 100 100 100 100 100 100 100 100 100 100 100 100 100 100 100 100 100 100 100 100 100 100 100 100 100
100 100 100 100 100 100 100 100 100 100 100 100 100 100 100 100 100 100 100 100 100 100 100 100 100 100 100
100 100 100 100 100 100 100 100 100 100 100 100 100 100 100 100 100 100 100 100 100 100 100 100 100 52 83
100 100 100 100 100 100 100 100 100 100 100 100 100 100 100 100 100 100 100 100 98 100 100 99 45 2 2
100 100 100 100 100 100 100 100 100 100 100 100 100 100 100 100 100 100 100 96 100 100 76 12 5 2 0
100 100 100 100 100 100 100 100 100 100 100 100 100 100 100 100 100 100 100 87 10 5 7 5 5 7 5

GFSFLT2_prec_cloud_015.txt.gz
Cloud_Cover
26 8 94 96 5 6 86 57 88 100 100 100 100 100 100 100 100 100 100 100 100 100 100 100 100 100 100
91 98 100 99 100 100 57 100 100 100 100 100 100 100 98 100 100 100 100 100 100 100 100 100 100 100 100
36 95 21 35 94 34 89 100 99 99 100 100 100 100 100 100 100 100 100 100 100 100 100 100 100 100 100
38 12 19 38 97 100 97 100 90 91 98 100 96 94 83 69 100 100 100 100 100 100 100 100 100 100 100
100 55 66 100 100 100 100 100 100 100 100 100 100 100 100 100 100 100 100 100 100 100 100 100 100 100 100
100 100 100 100 100 100 100 100 93 100 100 100 100 100 100 100 100 100 100 100 100 100 100 100 100 100 100
100 83 100 100 100 100 100 100 100 100 100 100 100 100 100 100 100 100 100 100 100 100 100 100 100 100 100
100 100 100 100 100 100 100 100 100 100 100 100 100 97 100 100 100 100 100 100 100 100 100 100 100 100 100
100 100 100 100 100 100 100 100 100 100 100 100 100 100 100 100 100 100 100 100 100 100 100 100 100 100 100
72 79 95 100 100 100 100 100 100 100 100 100 100 100 100 100 100 100 100 100 100 100 100 100 100 100 100
83 100 100 100 100 100 100 100 100 100 100 100 100 100 100 100 100 100 100 100 100 100 100 100 100 100 100
100 95 100 100 100 100 100 100 100 100 100 100 100 100 100 100 100 100 100 100 100 100 100 100 100 100 100
100 100 96 100 100 98 99 100 100 100 100 100 100 100 100 100 100 100 100 100 100 100 100 100 100 100 100
100 100 100 98 100 100 100 100 100 100 100 100 100 100 100 100 100 100 100 100 100 100 100 100 100 100 100
100 100 97 100 100 100 100 100 100 100 100 100 100 100 100 100 100 100 100 100 100 100 100 100 100 100 100
100 100 100 100 100 100 100 100 100 100 100 100 100 100 100 100 100 100 100 100 100 100 100 100 100 100 89
100 100 100 100 100 100 100 100 100 100 100 100 100 100 100 100 100 100 100 100 100 100 100 95 28 5 19

GFSFLT2_prec_cloud_018.txt.gz
Cloud_Cover
5 98 18 7 90 100 100 100 100 86 24 100 100 100 86 100 100 100 100 100 100 100 100 73 100 100 100
35 5 1 2 14 92 96 100 100 100 100 100 100 100 98 99 100 100 100 100 100 100 100 100 100 100 100
7 5 5 5 5 4 6 83 100 100 100 100 100 100 100 100 100 100 100 100 100 100 100 100 100 100 100
100 100 100 40 40 5 5 18 54 84 43 100 100 100 100 100 100 100 100 100 100 100 100 100 100 100 100
81 94 100 100 100 99 92 100 100 100 100 100 100 100 100 100 100 100 100 100 100 100 100 100 100 100 100
98 100 100 100 100 100 100 100 100 100 100 100 100 100 100 100 100 100 100 100 100 100 100 100 100 100 100
100 100 100 100 91 100 100 100 100 99 100 100 100 100 100 100 100 100 72 82 100 100 100 100 100 100 100
100 100 100 95 100 100 68 100 100 100 100 100 100 100 100 100 100 100 92 78 100 100 100 100 100 100 100
79 100 98 96 94 100 100 100 100 100 100 100 100 100 100 100 100 100 73 93 100 100 100 100 100 100 100
99 32 97 100 100 100 100 100 100 100 61 100 100 100 100 100 100 94 100 100 100 100 100 100 100 100 100
95 81 100 100 100 100 100 100 100 100 100 100 100 100 100 100 100 100 100 100 100 100 100 100 100 100 100
100 100 100 100 100 100 100 100 100 100 93 100 100 100 100 100 100 100 100 100 100 100 100 100 100 100 100
100 100 100 100 100 99 100 100 100 100 100 100 100 100 100 100 100 100 100 100 100 100 100 100 100 100 100
100 100 100 100 92 98 100 100 100 100 100 100 100 100 100 100 100 100 100 100 100 100 100 100 100 100 100
100 100 98 100 88 100 100 100 100 100 100 100 100 100 100 100 100 100 100 100 100 100 100 100 100 100 100
100 100 100 100 100 100 100 100 100 100 100 100 100 100 100 100 100 100 100 100 100 100 100 100 100 100 100
100 100 100 100 100 100 100 100 100 100 100 100 100 100 100 100 100 100 100 100 100 100 100 100 100 100 100

GFSFLT2_prec_cloud_021.txt.gz
Cloud_Cover
3 0 86 51 4 0 1 1 2 0 5 91 100 100 100 100 100 71 100 100 99 100 100 100 100 100 100
5 98 82 5 5 5 5 5 5 3 5 1 92 100 100 100 100 78 12 98 69 100 100 100 100 100 100
7 5 5 5 11 12 52 5 5 5 5 5 4 92 100 100 100 100 100 100 96 53 98 100 100 96 100
82 5 5 5 16 5 5 5 50 35 16 39 32 5 90 100 100 65 100 28 60 97 85 98 100 88 100
82 93 84 87 5 5 21 5 5 5 6 17 53 66 14 100 100 100 68 100 100 76 74 95 100 100 100
63 99 44 5 7 76 95 100 95 6 66 86 10 5 5 21 100 100 83 100 100 100 100 62 73 100 100
100 100 92 5 73 90 100 99 100 96 100 100 24 95 100 7 100 100 89 82 99 38 100 100 100 100 100
100 91 82 66 98 99 100 100 71 32 82 100 71 71 86 100 100 100 100 100 100 100 100 56 88 100 100
100 100 100 100 100 100 100 100 82 24 76 100 100 89 98 100 100 100 100 90 38 94 100 100 100 100 100
5 5 10 87 100 100 100 100 100 98 100 100 90 100 100 100 100 100 100 93 74 97 100 100 100 100 100
56 86 97 100 100 100 100 100 100 100 99 100 100 100 100 100 93 92 97 100 100 100 100 100 100 100 100
100 100 100 100 100 100 100 100 100 100 100 100 99 97 100 100 100 100 100 100 100 100 100 100 100 100 100
100 100 100 100 100 100 100 100 100 100 100 100 100 100 100 100 100 100 100 100 100 100 100 100 100 100 100
100 100 100 100 100 100 100 100 100 100 100 100 100 100 100 100 100 100 100 100 100 100 100 100 100 100 100
100 100 100 100 100 100 100 100 100 100 100 100 100 100 100 100 100 100 100 100 100 100 100 100 100 100 100
100 100 100 100 100 100 100 100 100 100 100 100 100 100 100 100 100 100 100 100 100 100 100 100 100 100 100
100 100 100 100 100 100 100 100 100 100 100 100 100 100 100 100 100 100 100 100 100 100 100 100 100 100 100

GFSFLT2_prec_cloud_024.txt.gz
Cloud_Cover
4 1 5 56 5 5 5 5 5 5 5 5 5 5 5 6 7 46 80 30 69 100 100 100 100 100 100
33 47 6 23 99 99 8 5 5 5 5 5 5 5 5 5 4 17 5 86 7 59 100 100 100 100 88
5 5 5 5 9 32 66 68 35 5 5 5 5 5 5 5 5 5 6 1 100 8 10 88 100 100 100
5 5 5 5 78 21 8 5 11 18 7 20 90 54 6 5 5 5 38 99 26 93 98 100 100 100 100
41 98 7 5 5 5 82 5 4 12 5 16 53 32 22 42 14 4 41 20 90 100 95 74 92 100 100
93 99 5 41 12 59 40 43 80 3 95 64 86 54 8 5 5 46 59 8 5 98 100 100 100 95 100
100 21 47 5 86 50 95 100 100 14 55 58 6 19 5 5 10 32 10 47 92 24 5 100 100 92 83
100 56 89 75 100 100 100 99 79 85 100 100 45 22 7 16 8 97 100 100 100 100 100 96 100 54 84
100 100 100 100 100 100 99 100 85 100 100 100 73 80 97 92 88 99 100 100 100 100 100 100 72 100 100
21 34 94 96 100 100 100 100 100 99 100 100 98 99 85 100 100 100 100 100 100 100 97 83 100 100 100
98 82 97 100 100 100 100 100 100 100 100 100 100 100 99 95 98 57 100 96 50 97 100 100 100 100 100
100 100 100 100 95 100 100 100 100 100 100 100 100 100 92 88 94 95 93 92 95 100 100 100 100 100 100
100 100 100 90 95 95 94 100 100 100 100 100 100 100 100 99 99 100 100 100 100 100 100 100 100 100 100
100 100 100 100 100 100 100 100 100 100 100 100 100 100 100 100 100 100 100 100 100 100 100 100 100 100 100
100 100 100 100 100 100 100 100 100 100 100 100 100 100 100 100 100 100 100 100 100 100 100 100 100 100 100
100 100 100 100 100 100 100 100 100 100 100 100 100 100 100 100 100 100 100 100 100 100 100 100 100 100 100
100 100 100 100 100 100 100 100 100 100 100 100 100 100 100 100 100 100 100 100 100 100 100 100 100 100 100

GFSFLT2_prec_cloud_027.txt.gz
Cloud_Cover
2 5 5 5 5 5 4 4 16 20 5 5 13 68 5 5 5 5 5 6 50 100 100 100 100 100 100
5 5 5 0 5 5 5 5 5 2 5 12 99 58 5 5 5 5 23 48 5 73 99 100 100 100 100
5 5 5 5 5 6 18 5 0 4 90 77 14 7 59 54 12 6 9 46 100 100 65 12 86 98 100
95 85 94 7 96 78 4 3 5 6 21 3 8 78 61 100 99 100 59 27 100 71 100 69 84 39 100
100 100 96 28 26 18 5 5 5 5 5 5 94 71 10 22 50 61 58 96 100 81 100 100 100 100 98
100 100 71 66 6 63 85 74 87 50 100 16 8 5 5 6 6 53 80 78 5 5 41 36 14 100 100
100 80 67 5 55 86 100 100 100 84 100 66 100 79 100 100 100 100 74 100 100 100 83 15 5 79 100
100 80 76 88 100 100 100 100 98 100 100 100 100 100 100 100 100 100 100 96 100 91 100 100 84 8 88
100 100 100 100 100 100 100 100 100 100 100 67 94 100 100 100 100 100 96 100 100 100 100 100 100 60 45
7 14 75 29 99 100 100 100 100 100 100 100 87 78 100 100 100 100 100 100 100 100 100 100 100 100 79
96 100 100 100 100 100 100 100 100 100 100 100 100 100 100 99 100 100 89 100 100 100 100 100 100 100 45
100 100 100 100 98 100 100 100 100 100 100 100 100 100 100 100 100 100 89 100 100 100 100 77 65 40 98
100 97 100 100 100 100 100 100 100 100 100 100 100 98 100 100 100 100 100 100 100 100 100 100 100 100 100
100 100 100 100 100 100 100 100 100 100 100 100 100 100 92 100 100 100 100 100 100 100 100 100 100 100 100
100 100 100 100 100 100 100 100 100 100 100 100 100 96 99 100 99 100 100 100 100 100 100 100 100 100 100
100 100 100 100 100 100 100 100 100 100 100 100 100 100 99 100 100 100 100 100 100 100 100 100 100 100 100
100 100 100 100 100 100 100 100 100 100 100 100 100 100 100 100 100 100 100 100 100 100 100 100 100 100 100

GFSFLT2_prec_cloud_030.txt.gz
Cloud_Cover
0 1 5 5 0 3 5 5 5 12 100 100 21 5 68 99 100 100 100 100 100 100 100 100 100 100 94
5 5 5 5 5 5 5 100 7 28 86 6 9 90 100 100 6 8 25 100 100 100 100 80 78 24 100
22 8 20 5 8 23 95 97 10 5 5 5 71 35 13 89 100 100 100 99 100 100 100 100 100 100 83
100 97 37 31 100 63 20 25 5 5 5 5 91 39 100 100 100 89 26 6 87 95 99 100 100 100 100
85 14 99 46 62 43 94 38 5 85 78 16 88 26 5 6 5 5 41 75 74 30 100 99 100 100 100
100 90 5 33 99 80 92 98 96 98 99 67 99 18 25 5 65 100 100 100 100 100 96 100 100 100 100
93 62 99 72 100 91 100 100 100 100 94 100 91 73 42 78 100 99 100 100 100 100 100 84 100 97 100
100 96 99 100 100 100 100 99 96 88 82 97 99 98 43 100 100 100 100 98 99 56 60 100 100 100 97
98 100 100 100 100 100 100 100 100 100 100 89 64 98 98 68 100 100 100 100 100 100 100 100 100 96 100
29 91 60 100 100 100 100 100 100 99 100 100 90 97 100 100 100 100 77 96 68 26 50 94 100 100 73
73 98 100 98 99 100 100 100 100 100 100 100 100 100 100 100 100 100 97 99 83 24 5 87 100 95 100
100 100 100 100 100 100 100 100 100 100 100 100 100 100 100 100 100 98 100 100 98 99 100 100 100 93 99
100 100 100 100 100 100 100 100 100 100 100 100 100 100 100 100 100 81 100 100 100 100 100 100 100 100 100
100 100 100 100 100 100 100 100 100 100 100 100 100 100 92 100 100 99 100 100 100 100 100 100 100 100 100
100 100 100 100 100 100 100 100 100 100 100 100 100 94 100 100 100 100 100 100 100 100 100 100 100 100 100
100 100 100 100 100 100 100 100 100 100 100 100 100 94 100 100 100 100 100 100 100 100 100 100 100 100 100
100 100 100 100 100 100 100 100 100 100 100 100 100 100 100 100 100 100 100 100 100 100 100 100 100 100 100

GFSFLT2_prec_cloud_033.txt.gz
Cloud_Cover
0 0 5 5 5 5 21 5 5 62 100 97 97 100 100 99 100 100 100 100 100 100 100 100 100 100 100
5 5 5 5 11 5 73 100 46 30 15 100 100 99 41 100 100 100 100 100 89 85 100 98 100 100 100
31 5 46 38 20 70 94 13 5 52 46 7 93 98 100 100 100 100 100 100 91 84 99 100 90 99 100
85 88 5 26 62 22 2 9 80 5 5 32 100 100 100 100 100 100 100 100 100 99 100 99 98 91 77
96 59 98 12 32 23 84 52 89 64 64 100 95 85 25 57 30 14 91 100 100 100 100 86 48 8 52
100 85 6 89 61 16 100 100 100 96 95 100 100 100 100 100 91 100 100 100 100 100 100 100 83 79 5
58 91 100 14 91 100 100 100 100 100 96 100 96 100 48 100 96 100 100 100 100 100 100 100 100 100 52
97 90 100 100 100 100 100 100 93 76 100 100 32 88 15 18 37 100 100 100 100 100 100 100 99 98 41
96 98 100 100 100 100 97 100 97 100 100 100 97 99 94 95 100 97 98 100 100 100 100 100 100 97 22
88 87 100 100 100 100 100 100 100 100 100 100 100 99 100 100 99 96 96 100 100 100 100 100 100 100 66
92 100 100 99 100 100 100 100 100 100 99 100 100 100 100 100 99 99 100 78 93 100 100 100 100 100 100
100 100 100 100 100 100 100 100 100 100 100 100 100 100 100 86 98 93 100 100 100 100 100 100 99 100 100
100 100 100 100 100 100 100 100 100 100 100 100 100 100 100 99 99 94 100 100 100 100 100 100 100 100 100
100 100 100 100 100 100 100 100 100 100 100 100 100 100 94 97 100 100 95 100 100 100 100 100 100 100 100
100 100 100 100 100 100 100 100 100 100 100 100 100 99 98 100 100 100 100 100 100 100 100 100 100 100 84
100 100 100 100 100 100 100 100 100 100 100 100 100 97 99 100 100 100 100 100 100 100 100 100 100 100 100
100 100 100 100 100 96 100 100 100 100 100 100 100 100 100 100 99 100 100 100 100 100 100 100 100 100 100

GFSFLT2_prec_cloud_036.txt.gz
Cloud_Cover
5 5 5 5 16 100 74 19 5 7 45 76 100 100 100 100 100 100 100 100 100 100 100 100 100 100 100
5 5 5 4 14 6 98 100 57 5 18 100 100 100 100 100 100 100 100 100 100 100 100 100 100 100 100
6 5 8 55 17 68 21 5 5 3 5 14 100 100 100 100 100 100 100 100 100 100 100 100 100 100 100
88 95 10 24 100 77 4 5 5 5 9 100 99 100 100 100 100 100 100 100 100 100 100 100 100 100 100
6 84 100 26 5 5 32 61 64 81 67 41 95 14 8 27 45 92 100 100 100 100 100 100 100 100 100
100 25 10 5 28 85 100 100 99 98 100 48 72 86 7 27 77 100 100 100 100 100 100 100 100 100 100
26 19 99 58 100 100 100 100 100 99 96 100 41 89 15 5 60 100 100 100 100 100 100 100 100 100 100
100 95 100 100 100 100 100 100 100 100 100 100 82 100 100 99 100 96 100 100 100 100 100 100 100 100 100
100 99 75 100 100 100 100 100 100 100 100 100 100 97 100 100 100 100 100 100 100 100 100 100 100 100 100
98 100 100 100 100 100 100 100 100 100 97 100 100 99 100 100 86 100 80 69 98 100 100 100 100 100 98
100 100 100 100 98 100 100 100 100 100 97 100 100 100 100 98 100 94 97 99 100 100 100 100 100 100 80
100 100 100 100 100 100 100 100 100 100 99 100 100 100 100 100 98 99 100 99 100 100 100 100 100 100 100
100 100 100 100 100 100 100 100 100 100 100 93 100 100 100 100 99 90 99 100 100 100 100 100 100 98 100
100 100 100 100 100 100 100 100 100 100 100 100 100 100 96 100 100 100 100 100 100 100 100 100 100 100 100
100 100 100 100 100 100 100 100 100 100 100 100 99 99 95 100 100 100 100 100 100 100 100 100 100 100 100
100 100 100 100 100 95 100 100 100 100 100 100 98 100 97 100 100 100 100 100 100 100 100 100 100 100 100
100 100 100 100 100 100 100 97 100 100 100 100 100 100 87 100 100 100 100 100 100 100 100 100 100 100 100

GFSFLT2_prec_cloud_039.txt.gz
Cloud_Cover
5 5 5 5 5 5 58 52 5 54 97 100 100 100 100 100 100 100 100 100 100 100 100 100 100 100 100
6 5 5 5 5 96 100 100 100 2 10 100 100 100 100 100 100 100 78 100 100 100 100 100 100 100 100
67 36 46 90 94 89 19 5 5 4 8 26 99 100 100 100 100 100 100 100 100 100 100 100 100 100 100
100 100 100 72 24 12 5 5 5 38 88 42 100 100 97 99 100 100 100 100 100 100 100 100 100 100 100
100 88 6 4 5 5 62 95 99 100 93 84 30 5 28 12 6 5 82 100 100 100 100 100 100 100 100
96 74 13 5 81 100 100 100 99 100 100 100 91 97 48 28 9 100 100 100 100 100 100 100 100 100 100
22 15 66 86 100 100 100 100 100 100 100 100 96 99 100 80 99 100 100 100 100 100 100 100 100 100 100
85 98 100 100 100 100 100 100 100 100 100 100 98 72 98 100 100 100 100 100 100 100 100 100 100 100 100
99 100 100 100 100 100 100 100 100 100 99 100 99 97 98 100 100 78 100 100 100 100 100 100 100 100 100
100 100 96 98 100 100 100 100 100 100 81 100 94 96 100 99 100 100 87 78 100 100 100 100 100 100 90
100 99 98 97 82 100 100 100 100 100 87 100 100 96 100 84 98 100 97 96 100 96 100 100 100 100 100
100 100 100 99 97 100 100 98 100 100 93 100 100 100 100 96 97 85 100 100 100 100 100 100 100 100 100
100 100 100 100 100 100 77 75 87 76 99 86 100 100 100 100 100 92 100 100 100 100 100 100 98 100 100
100 100 100 100 100 100 100 100 100 99 100 100 100 100 99 100 100 100 100 100 100 100 100 100 100 100 80
100 100 100 100 98 95 100 100 100 100 100 100 100 100 100 100 100 100 100 100 100 100 100 100 98 91 94
100 100 100 100 100 97 99 100 100 100 100 100 100 100 100 100 100 100 100 100 100 100 100 100 100 100 100
100 100 100 98 100 100 100 100 94 100 100 100 100 100 100 100 100 100 100 100 100 100 100 100 100 100 100

GFSFLT2_prec_cloud_042.txt.gz
Cloud_Cover
5 5 5 5 5 17 95 5 5 5 98 100 100 100 100 100 100 100 100 100 100 100 100 100 100 100 100
5 5 5 5 65 100 21 5 5 5 100 100 100 100 100 100 100 100 100 100 100 100 100 100 100 100 100
40 10 12 100 70 5 3 3 5 5 16 100 100 100 100 100 100 100 100 100 100 100 100 100 100 100 100
91 100 82 5 5 5 5 5 42 63 57 100 95 100 100 100 100 100 100 100 100 100 100 100 100 100 100
99 25 44 6 5 8 96 60 100 84 100 97 86 40 96 100 100 80 100 100 100 100 100 100 100 100 100
88 99 12 69 100 100 100 100 97 88 100 100 48 68 72 63 51 100 100 100 100 100 100 100 100 100 100
16 10 76 58 100 100 100 100 100 90 98 100 51 65 92 100 100 100 100 100 100 100 100 100 100 100 100
83 100 100 99 100 100 100 100 99 88 53 98 83 32 98 100 100 100 100 100 100 100 100 100 100 100 100
97 74 30 82 100 100 100 100 100 100 56 99 36 91 93 100 90 99 88 100 100 100 100 100 100 100 100
87 6 5 75 86 98 100 100 100 100 44 100 92 95 92 89 100 100 96 100 100 100 100 100 100 100 99
53 31 82 54 23 92 100 100 100 100 81 100 98 94 100 84 89 97 100 99 100 87 100 100 100 100 100
100 100 100 98 82 100 98 98 100 100 77 100 99 100 100 95 97 71 100 100 100 95 97 98 100 100 100
100 100 100 94 83 100 76 70 60 82 100 98 100 100 100 100 100 100 100 33 92 100 100 100 100 100 100
100 100 100 91 99 89 100 100 100 20 100 100 100 100 100 99 100 100 100 100 100 100 100 100 100 100 91
100 100 97 100 87 96 100 100 100 99 65 100 100 100 100 94 100 100 100 100 100 100 100 100 100 86 100
100 100 100 100 100 91 100 100 100 95 100 100 100 100 100 100 100 100 100 100 100 100 100 100 100 100 100
100 100 100 98 100 100 100 100 97 99 100 100 100 100 99 98 100 100 100 100 100 100 100 100 100 100 100

GFSFLT2_prec_cloud_045.txt.gz
Cloud_Cover
5 5 5 5 89 100 100 96 18 36 77 100 100 100 100 100 100 100 100 100 100 100 100 100 100 100 100
5 5 4 63 98 99 12 5 5 5 79 100 100 100 100 100 100 100 100 100 100 100 100 100 100 100 100
10 20 69 96 31 5 4 8 5 5 90 66 88 100 100 100 100 100 100 100 100 100 100 100 100 100 100
98 98 34 5 5 18 12 38 77 28 34 88 81 93 99 84 92 100 100 100 100 100 100 100 100 100 100
92 8 10 10 28 31 98 95 95 29 85 93 11 23 5 19 13 15 100 100 100 100 100 100 100 100 100
87 93 8 97 85 100 100 100 99 36 85 90 51 15 5 6 5 99 100 100 100 100 100 100 100 100 100
73 86 87 88 100 99 100 100 100 55 66 100 22 26 14 58 71 46 90 100 100 100 100 100 100 100 100
94 98 100 100 100 100 98 100 98 44 69 99 5 18 92 87 95 100 87 100 100 100 100 100 100 100 100
94 85 14 58 96 100 80 100 100 98 12 85 61 97 74 100 86 5 67 100 100 100 100 100 100 100 100
5 5 5 60 96 100 100 100 100 100 56 100 95 96 100 10 15 8 46 100 100 100 100 100 100 100 100
26 52 84 97 98 91 100 100 100 100 31 100 93 100 100 100 28 89 30 34 80 90 100 100 100 100 100
94 97 100 100 100 98 97 100 98 100 91 99 98 100 100 94 98 21 99 70 72 89 100 96 100 100 100
100 100 100 100 100 100 88 97 86 79 36 86 100 98 100 100 100 92 82 89 70 100 100 100 100 100 100
100 100 100 100 100 100 100 100 100 18 5 61 100 100 100 100 100 96 74 100 100 100 100 100 100 100 100
100 100 100 100 100 100 100 100 100 97 68 19 100 100 100 92 100 86 100 100 100 100 100 100 100 100 100
100 100 100 100 100 96 100 100 100 98 98 86 92 100 100 100 100 99 100 100 100 100 100 100 100 100 100
100 100 100 100 100 100 100 100 100 100 92 89 100 100 100 100 100 100 100 100 100 100 100 100 100 100 100

GFSFLT2_prec_cloud_048.txt.gz
Cloud_Cover
5 5 83 97 96 100 95 65 15 9 6 100 100 100 100 100 100 100 100 100 100 100 100 100 100 100 100
12 34 38 96 100 100 45 8 49 23 100 100 100 100 100 100 100 100 100 100 100 100 100 100 100 100 100
15 5 41 95 100 12 68 100 84 100 100 100 100 100 100 100 100 100 100 100 100 100 100 100 100 100 100
96 16 96 22 15 99 80 74 97 98 32 100 94 97 79 7 51 81 94 100 100 100 100 100 100 100 100
98 62 5 56 85 99 99 91 90 100 13 16 49 5 5 5 5 19 86 100 100 100 100 100 100 100 100
94 75 93 100 98 100 100 100 100 81 97 100 64 5 5 5 5 49 100 100 100 100 100 100 100 100 100
100 100 100 99 100 94 87 100 100 65 100 100 5 5 5 5 5 79 78 88 100 100 100 100 100 100 100
98 100 100 99 100 99 99 93 62 75 100 100 18 6 13 21 39 38 51 86 97 100 100 100 100 100 100
100 100 100 94 99 99 63 100 96 90 15 100 93 54 68 70 100 89 5 6 84 100 100 100 100 100 100
100 93 100 100 98 100 100 100 100 100 5 100 94 100 94 100 96 11 46 46 92 100 100 100 100 100 100
98 94 99 99 97 99 100 100 100 100 17 100 100 100 100 92 64 10 76 5 14 98 53 70 100 100 100
97 94 98 96 96 98 97 97 99 100 77 100 99 100 100 100 96 100 68 73 68 95 100 100 100 100 100
100 100 99 100 100 100 97 100 97 96 80 92 99 100 100 100 100 98 97 74 77 100 100 100 100 100 100
100 100 100 100 100 100 100 99 100 59 5 74 93 100 100 100 100 100 100 100 100 100 100 100 100 100 100
100 100 100 100 100 99 100 100 100 100 92 64 93 100 100 100 100 99 91 100 100 100 100 100 100 100 100
100 100 100 100 100 91 99 100 100 100 100 99 83 87 100 100 97 98 98 100 100 100 100 100 100 100 100
100 100 100 100 100 100 100 100 100 100 100 100 100 100 100 100 100 100 100 100 100 100 100 100 100 100 100

GFSFLT2_prec_cloud_051.txt.gz
Cloud_Cover
5 5 3 5 5 15 28 4 5 2 52 100 100 100 100 100 100 100 100 100 100 100 100 100 100 100 100
5 5 56 5 56 95 57 7 2 11 100 100 100 100 100 100 100 100 100 100 100 100 100 100 100 100 100
5 5 5 14 92 49 3 5 5 5 76 67 98 100 100 100 100 100 100 100 100 100 100 100 100 100 100
5 5 84 72 6 62 67 5 5 5 14 5 59 70 62 12 75 91 100 100 100 100 100 100 100 100 100
96 100 8 5 72 5 94 74 5 95 18 42 5 4 5 5 5 37 99 99 100 100 100 100 100 100 100
100 95 48 5 68 93 85 100 93 27 98 5 5 5 5 5 5 77 94 100 100 100 100 100 100 100 100
100 36 68 5 83 36 89 92 100 91 97 50 5 5 5 5 5 5 32 39 73 100 100 100 100 100 100
100 68 65 100 100 100 93 73 20 5 86 99 5 5 5 5 5 95 91 87 98 100 100 100 100 100 100
36 89 100 100 100 100 71 87 98 90 58 100 63 43 51 5 35 100 98 100 22 90 100 100 100 100 100
47 5 27 14 98 99 100 100 100 99 48 100 88 94 94 5 53 93 89 100 5 44 94 100 100 99 100
5 5 5 30 89 100 100 100 100 100 70 100 100 96 100 82 25 71 36 78 18 62 94 100 100 100 100
45 79 94 100 100 100 100 100 100 100 98 100 100 100 100 96 94 96 98 96 92 77 88 100 100 100 100
100 89 93 99 93 94 93 87 98 78 66 99 100 100 100 100 100 98 100 74 98 100 99 100 100 100 100
80 67 90 98 100 100 100 100 100 34 79 82 100 100 100 99 100 100 100 100 100 100 100 100 100 100 100
100 100 100 100 100 99 100 100 100 100 78 47 94 100 100 100 100 100 100 98 100 100 100 100 100 100 100
100 100 100 100 100 94 97 100 100 100 100 100 100 100 53 100 100 100 76 90 100 100 100 100 100 100 100
100 100 100 100 100 100 100 100 100 100 100 100 100 100 100 100 100 100 100 78 100 100 100 100 100 100 100

GFSFLT2_prec_cloud_054.txt.gz
Cloud_Cover
0 5 5 4 4 2 3 5 5 5 40 100 100 100 100 100 100 100 100 100 100 100 100 100 100 100 100
5 5 5 0 2 5 5 0 2 5 94 91 100 92 100 100 100 100 100 100 100 100 100 100 100 100 100
5 5 5 5 32 13 2 5 5 3 5 5 6 34 51 100 100 97 98 98 100 100 100 100 100 100 100
20 83 98 68 30 5 5 5 5 5 5 5 43 5 5 5 38 65 89 100 100 100 100 100 100 100 100
93 100 100 97 69 51 5 5 5 36 95 5 5 5 5 5 5 5 77 100 100 100 100 100 100 100 100
96 100 95 29 97 57 5 89 100 64 74 21 8 5 5 5 5 78 100 100 100 100 100 100 100 100 100
78 26 67 78 90 90 87 99 99 66 95 92 5 5 5 5 9 66 72 40 94 100 100 100 100 100 100
100 100 95 59 100 100 98 88 27 65 90 99 25 23 5 5 5 5 5 89 100 88 100 100 100 100 100
67 95 99 94 99 100 73 100 92 89 8 96 12 62 95 5 2 2 5 49 99 90 100 100 100 100 99
5 4 4 5 6 52 100 100 100 86 36 98 77 89 100 5 4 5 5 98 100 93 65 84 63 98 97
5 5 5 5 5 6 99 100 100 100 70 100 100 99 100 83 5 5 5 32 81 99 99 96 100 100 100
5 5 76 59 5 59 52 98 93 100 89 100 99 99 100 97 98 8 17 89 67 86 45 90 100 100 100
90 92 65 11 78 92 14 46 99 44 64 98 100 99 100 100 100 73 86 100 98 76 98 96 100 100 94
65 95 94 96 97 92 100 95 100 16 86 68 100 100 100 100 100 99 78 100 100 91 100 100 100 100 99
100 100 96 100 92 95 100 100 100 100 63 5 65 100 99 100 99 95 100 100 86 98 99 99 100 100 99
100 100 100 100 100 94 100 100 100 99 98 72 95 87 23 35 94 99 100 72 73 100 100 100 100 100 100
100 100 100 100 100 100 100 100 99 100 94 97 100 100 100 90 100 100 100 79 99 100 100 100 100 100 100

GFSFLT2_prec_cloud_057.txt.gz
Cloud_Cover
5 0 0 0 0 0 0 1 2 5 5 80 100 99 100 100 100 100 100 100 100 100 100 100 100 100 100
1 4 5 5 5 5 5 5 2 1 5 82 91 92 100 100 100 100 100 100 100 100 100 100 100 100 100
5 5 5 5 16 5 5 5 5 5 5 5 35 52 100 97 100 100 92 100 100 100 100 100 100 100 100
51 5 29 99 72 20 5 5 5 5 5 5 84 5 5 5 7 5 81 99 100 100 100 100 100 100 100
91 61 100 95 16 5 5 5 5 5 76 5 5 5 5 5 5 5 88 100 100 100 100 100 100 100 100
100 100 82 5 31 96 5 49 86 7 58 74 52 17 5 5 8 85 84 98 100 100 100 100 100 100 100
57 13 88 9 18 30 92 100 95 13 84 91 5 5 5 5 5 5 95 96 99 100 100 100 100 100 100
85 94 94 98 100 100 96 81 45 11 9 100 8 5 5 5 5 5 5 90 98 98 100 100 100 100 100
11 82 100 85 76 100 13 93 76 81 5 94 9 5 80 5 99 4 5 17 5 65 98 100 100 100 100
5 4 0 5 5 8 78 100 100 100 8 94 77 87 100 5 100 6 2 5 28 5 75 96 100 100 94
5 0 3 5 5 5 37 100 100 100 23 100 99 98 100 89 94 30 5 4 5 5 5 76 88 100 100
5 5 58 40 5 35 29 94 94 95 74 100 100 100 100 94 97 5 5 5 5 5 5 98 100 100 100
76 74 51 84 82 89 100 100 100 100 98 92 98 99 100 100 99 77 92 29 23 14 48 98 100 100 100
84 72 100 100 100 100 100 100 100 30 100 67 23 80 100 100 100 100 100 100 68 92 84 100 100 100 66
100 100 100 100 100 92 100 100 100 96 73 80 5 14 97 98 100 92 93 75 74 100 94 100 100 75 45
100 100 100 100 100 100 100 100 100 100 100 50 74 82 15 31 23 39 82 98 93 99 100 100 99 99 100
100 100 100 100 100 100 100 100 100 100 84 85 100 100 100 97 9 86 100 100 96 100 100 100 100 100 100

GFSFLT2_prec_cloud_060.txt.gz
Cloud_Cover
66 100 100 99 70 5 5 3 0 5 12 78 98 100 100 100 100 100 100 100 100 100 100 100 100 100 100
5 8 5 5 5 5 4 5 5 5 11 66 26 86 99 100 100 100 100 100 100 100 100 100 100 100 100
5 5 5 5 5 5 5 5 5 5 5 5 5 73 99 99 98 100 100 97 100 90 95 100 100 100 100
17 41 5 5 5 30 5 5 5 5 5 5 59 11 16 6 5 10 28 99 99 97 100 100 100 100 100
92 20 61 50 5 5 18 5 5 5 5 5 5 5 5 5 5 5 44 100 100 100 100 100 100 100 100
98 97 40 5 5 19 70 98 98 6 5 63 6 5 5 5 5 64 95 96 100 100 100 100 100 100 100
95 25 5 5 48 72 92 100 99 15 52 94 5 5 5 5 5 5 70 92 100 100 100 100 100 100 100
29 26 68 89 100 100 90 68 25 5 5 97 7 5 5 5 5 5 5 18 98 100 100 100 100 100 100
6 74 84 62 48 96 43 96 91 72 5 72 13 5 5 5 5 62 5 50 11 13 91 100 100 100 100
5 4 1 5 5 5 50 100 100 99 5 77 80 86 86 5 41 100 8 5 5 20 77 96 100 100 100
3 2 5 5 5 5 59 99 100 100 99 100 100 97 100 83 59 98 8 4 5 5 5 29 47 100 100
5 5 34 6 5 33 100 100 97 94 84 100 99 95 100 100 99 59 5 5 5 5 34 15 30 36 100
93 93 87 83 64 87 97 100 100 100 100 100 100 98 100 100 100 77 90 19 51 35 5 36 33 82 100
94 96 93 100 100 93 100 100 100 100 100 75 82 89 99 99 100 96 98 100 78 73 83 99 100 97 100
100 100 100 100 99 79 100 100 100 100 95 21 60 84 85 98 100 88 96 99 78 93 100 100 100 100 100
100 100 100 100 100 86 100 100 100 100 100 48 61 92 51 41 51 96 61 85 65 84 100 100 100 100 91
100 100 100 100 100 100 100 100 99 100 75 52 100 100 100 95 29 100 100 72 73 100 87 100 100 99 68

GFSFLT2_prec_cloud_063.txt.gz
Cloud_Cover
5 5 5 84 83 82 9 5 5 5 5 39 100 97 100 100 100 100 100 100 100 100 100 100 100 100 100
5 5 5 86 100 64 5 5 3 2 5 86 91 68 95 96 100 100 100 100 100 100 100 100 100 100 100
5 5 52 80 5 5 5 5 5 2 4 5 5 14 88 98 100 100 98 98 100 100 100 97 100 100 100
16 19 16 38 5 16 49 5 5 5 5 5 5 5 17 5 20 12 26 6 95 100 99 93 95 100 100
70 76 76 81 76 9 34 5 28 5 5 5 5 5 5 5 5 5 5 76 99 100 100 100 100 100 100
97 99 98 29 5 5 55 82 96 7 5 35 5 5 5 5 5 5 67 100 100 100 100 100 100 100 100
89 12 5 5 61 70 100 99 100 55 5 96 5 5 0 5 5 5 5 67 99 100 100 100 100 100 100
5 5 51 91 100 100 100 74 61 13 5 81 5 5 5 5 5 5 5 21 54 100 100 100 100 100 100
5 13 28 35 12 53 33 98 92 31 5 14 10 6 5 5 5 98 100 94 77 65 98 100 100 100 100
5 2 0 0 5 5 5 100 100 87 29 84 84 98 37 5 5 74 100 100 67 69 94 99 100 100 100
0 2 5 5 5 5 6 100 100 100 48 100 99 100 100 77 34 7 23 50 5 5 5 52 95 100 100
5 5 33 38 5 5 51 70 97 97 57 100 100 99 100 100 99 45 100 22 5 5 5 44 67 51 88
91 88 82 80 56 86 46 73 67 46 87 77 100 96 100 100 99 83 94 18 5 45 5 41 28 18 69
90 100 99 94 100 84 100 96 100 46 15 94 56 92 100 99 100 90 93 99 41 52 97 87 100 100 100
100 99 100 100 98 67 97 100 100 96 62 20 100 100 99 100 100 96 87 90 79 96 100 100 86 81 96
100 100 100 100 100 86 99 100 100 100 100 44 85 95 57 95 100 97 87 93 77 98 96 100 100 78 83
100 100 100 98 100 100 100 100 100 100 99 89 100 100 100 100 100 100 100 100 99 86 61 78 98 100 10

GFSFLT2_prec_cloud_066.txt.gz
Cloud_Cover
100 100 97 71 49 47 5 4 5 5 5 5 73 100 100 100 100 100 100 100 100 100 100 100 100 100 100
91 100 100 70 66 20 37 5 5 8 5 70 89 43 96 100 100 100 100 100 100 100 100 100 100 100 100
5 82 93 94 71 69 14 75 84 38 5 5 5 5 81 95 99 99 97 99 100 100 100 100 100 100 100
67 7 65 50 45 47 77 40 5 5 5 5 5 5 5 5 9 5 5 5 26 96 100 100 100 100 100
93 100 57 92 75 88 6 5 38 5 5 5 5 5 5 5 5 5 5 7 87 98 100 100 100 100 100
100 96 68 99 47 5 60 100 100 48 5 27 5 5 5 5 5 5 5 65 98 100 100 100 100 100 100
80 100 75 8 83 94 97 100 99 64 9 33 5 5 5 0 5 21 20 83 100 100 100 100 100 100 100
34 5 47 100 100 97 70 30 32 12 5 89 5 5 5 5 4 98 100 100 100 77 100 100 100 100 100
5 32 37 12 9 38 5 96 93 59 5 87 12 5 23 5 2 98 100 100 51 20 82 99 100 100 100
5 2 0 1 5 5 27 100 100 94 5 92 16 82 47 5 56 100 100 100 22 5 29 97 98 100 100
0 2 5 5 5 5 5 97 100 100 5 100 78 99 100 75 21 5 6 5 5 5 5 27 90 96 100
5 5 5 5 5 5 5 37 81 97 58 97 98 93 100 96 98 5 5 5 5 5 5 5 66 49 92
92 75 67 58 11 65 7 20 7 44 30 100 88 99 100 100 99 90 96 16 5 46 6 5 6 37 75
86 98 92 81 97 68 100 87 100 12 66 34 88 97 99 99 100 84 11 99 16 90 80 100 90 96 90
100 100 100 99 90 64 92 100 100 100 100 84 71 58 83 100 98 97 100 100 71 86 93 96 65 89 100
100 100 100 100 100 88 85 100 100 100 100 100 99 100 100 100 99 95 93 100 100 97 100 100 100 97 51
100 100 100 96 100 100 100 100 99 88 83 91 100 100 100 100 100 100 100 100 100 100 90 96 100 100 56

GFSFLT2_prec_cloud_069.txt.gz
Cloud_Cover
100 100 100 100 100 100 98 18 96 99 39 5 5 19 43 78 75 99 100 100 100 100 100 100 100 100 100
100 100 100 100 100 100 100 100 100 99 66 5 5 5 22 96 100 100 100 100 100 100 100 100 100 100 100
100 100 100 100 100 100 100 100 100 100 54 5 5 5 5 8 91 95 94 82 99 96 99 98 100 100 100
100 100 93 100 100 100 100 100 96 92 16 5 5 5 5 5 5 5 5 5 6 63 100 100 100 100 100
98 100 100 100 84 32 61 89 90 94 36 9 5 5 5 5 5 5 5 5 64 100 100 100 100 100 100
100 100 100 69 88 100 100 94 95 43 26 88 5 5 5 5 5 5 5 5 95 100 100 100 100 100 100
100 100 100 100 92 92 92 88 97 16 52 86 5 25 5 5 5 5 5 33 14 99 100 100 100 100 100
74 83 100 94 97 97 94 89 90 32 66 85 5 5 5 5 5 5 5 5 30 95 100 100 100 100 100
100 61 22 5 10 77 79 88 96 9 7 79 5 5 6 5 2 0 5 5 5 5 72 99 100 100 100
6 5 0 1 5 5 79 99 100 88 5 99 11 88 96 5 5 5 5 5 5 5 5 95 99 100 100
0 4 5 5 5 5 77 99 100 100 10 100 88 96 100 94 28 5 5 5 5 5 5 64 96 99 93
5 5 35 39 5 5 5 47 89 93 43 98 97 96 100 98 97 10 32 5 31 73 82 64 54 19 85
95 94 90 85 64 83 78 67 91 83 80 78 96 97 100 100 99 78 99 23 6 38 62 83 89 84 86
100 93 94 100 92 94 96 96 95 19 5 5 9 85 98 99 98 100 84 100 97 73 90 100 100 99 99
100 98 95 96 91 92 96 97 100 94 61 88 49 79 97 98 100 100 100 97 63 97 100 100 100 97 96
100 100 99 100 99 95 94 99 100 94 100 100 100 100 99 100 94 84 87 91 100 98 100 100 100 100 100
100 100 100 99 100 100 98 97 98 96 99 96 100 100 100 100 100 98 100 97 76 100 100 100 100 100 91

GFSFLT2_prec_cloud_072.txt.gz
Cloud_Cover
100 100 100 100 100 100 81 98 80 99 95 97 15 23 10 6 14 67 33 94 100 100 100 100 100 100 100
100 100 100 100 100 100 100 82 100 88 28 10 5 59 64 13 8 7 84 78 100 100 100 100 99 100 100
100 100 100 100 100 94 96 96 91 60 17 19 33 23 92 5 5 5 21 56 66 69 74 99 100 100 100
100 100 100 100 100 100 100 98 100 100 100 100 99 71 42 10 5 5 5 5 5 5 68 91 79 89 100
100 100 100 100 53 36 29 70 100 100 100 100 94 6 5 5 5 4 5 5 7 74 92 100 100 100 100
100 100 100 63 18 40 100 100 100 100 91 79 5 5 5 5 5 5 5 5 93 92 100 100 100 100 99
99 100 100 100 78 100 100 97 97 67 90 87 5 5 5 5 4 5 5 5 5 5 79 96 100 100 100
95 92 100 100 96 99 91 98 90 30 70 92 5 29 5 5 5 5 5 5 5 14 93 100 100 100 100
100 100 91 17 20 54 86 96 78 8 7 91 11 77 28 5 5 5 5 12 10 47 82 98 98 100 100
100 76 5 5 5 41 82 100 100 94 5 99 68 90 97 30 38 5 5 5 64 82 94 100 98 100 100
5 5 5 5 11 46 76 100 100 100 5 100 99 95 100 97 98 5 5 5 28 39 92 99 100 95 81
5 12 61 82 74 80 76 90 100 97 7 89 99 99 100 100 95 8 5 5 68 70 88 73 97 100 100
94 91 92 81 86 96 75 90 99 86 68 76 100 100 100 100 99 87 99 84 62 60 79 92 90 94 100
95 93 89 100 100 97 100 100 100 76 6 5 49 98 100 100 100 98 84 100 100 98 89 99 100 100 98
100 99 95 99 99 99 100 100 100 100 87 6 92 100 100 99 98 92 100 100 88 96 100 100 100 100 100
100 100 100 100 100 100 100 100 100 100 100 100 100 100 99 100 90 99 99 99 96 100 100 100 100 100 100
100 100 100 100 100 99 100 100 100 100 100 98 100 100 100 100 100 100 100 100 100 100 100 100 100 99 100

GFSFLT2_prec_cloud_075.txt.gz
Cloud_Cover
100 100 100 100 100 100 98 100 100 100 100 100 100 100 98 69 94 75 50 81 89 100 100 100 100 100 100
100 100 100 100 72 100 100 100 100 100 100 100 100 100 91 25 24 33 79 46 59 97 98 84 99 99 100
100 100 62 73 100 100 100 100 100 100 97 79 5 5 5 7 12 5 5 23 79 22 92 48 43 91 100
80 99 100 99 64 100 100 77 89 68 52 72 89 12 47 5 40 85 5 5 5 5 47 60 79 94 100
99 100 100 94 99 100 100 100 100 100 94 100 93 8 9 65 25 5 5 5 41 88 100 100 100 100 100
100 100 100 100 100 100 100 100 100 100 44 48 16 92 100 10 4 5 5 5 30 82 91 99 100 100 100
100 100 100 99 98 97 100 100 100 100 100 100 100 92 6 0 4 5 5 5 5 5 45 94 99 98 100
100 100 100 100 100 100 100 100 100 100 84 75 4 5 3 3 2 5 5 5 5 5 8 98 97 97 97
100 100 100 100 100 100 100 87 89 70 5 6 4 5 5 5 0 4 5 5 5 5 90 94 100 100 100
100 100 96 59 5 5 5 99 100 98 5 55 5 38 86 5 0 4 2 4 29 24 29 92 100 100 100
5 5 5 10 29 89 89 100 100 100 45 100 44 91 100 87 76 5 5 5 5 5 5 54 94 100 100
5 26 60 63 98 100 100 99 97 99 68 100 100 100 100 100 100 100 40 6 14 34 39 22 41 85 100
71 86 99 100 100 100 100 100 100 100 100 37 99 100 100 100 100 100 100 76 81 5 88 100 100 100 99
78 100 100 100 100 100 100 100 100 100 96 98 100 100 100 100 99 87 90 100 82 97 97 98 100 100 100
100 100 100 100 100 100 100 100 100 100 100 100 100 100 100 100 100 87 85 100 100 100 100 97 93 98 100
100 100 100 100 100 100 99 100 100 100 100 100 100 100 100 70 77 55 89 98 76 84 93 100 100 100 41
100 100 100 100 100 98 100 100 100 100 100 100 100 100 100 100 100 100 100 100 100 99 96 100 100 100 92

GFSFLT2_prec_cloud_078.txt.gz
Cloud_Cover
100 100 100 100 100 100 100 100 100 100 100 100 83 37 98 90 100 100 100 100 100 100 100 100 100 100 100
100 100 100 100 100 100 100 100 100 100 100 93 56 59 100 100 100 100 100 99 100 100 100 100 100 100 100
74 48 54 69 96 95 99 90 99 71 32 56 26 95 96 100 100 92 79 12 97 100 100 90 89 96 96
100 100 100 100 100 100 92 84 100 99 72 91 100 94 97 82 47 40 5 5 36 70 74 76 99 100 100
100 100 100 100 100 100 100 100 100 97 98 99 100 97 100 95 33 63 5 62 88 80 93 100 100 100 100
100 100 100 100 100 100 90 100 100 97 100 100 100 100 100 100 100 59 57 27 94 99 100 100 100 100 100
100 100 100 98 100 100 100 100 100 100 100 100 100 100 82 55 5 5 5 8 8 24 85 100 100 100 100
100 100 100 100 100 100 100 100 100 69 56 83 11 11 2 2 0 5 5 5 5 72 95 99 100 100 100
100 100 100 82 79 63 6 38 11 22 5 17 5 5 5 3 0 0 5 5 5 5 51 100 98 100 100
5 2 4 0 5 5 9 77 100 70 5 47 21 74 60 5 5 4 4 3 5 5 58 97 100 100 100
5 4 3 5 5 5 79 99 100 100 73 100 90 97 100 95 6 5 5 5 5 5 5 5 72 100 100
5 5 36 59 98 100 100 100 100 100 100 100 100 100 100 100 100 10 68 91 7 5 5 22 35 83 100
5 32 100 100 100 100 100 100 100 100 100 100 100 100 100 100 91 87 100 75 5 54 32 48 8 96 100
72 100 100 100 100 100 100 100 98 95 96 100 100 100 100 100 100 100 77 100 44 72 77 88 90 90 100
100 100 100 100 100 100 100 95 99 100 95 99 100 100 100 97 100 100 100 89 94 89 100 100 100 95 100
100 100 100 100 100 100 100 93 99 98 100 93 100 100 88 5 24 88 89 100 84 45 72 100 97 100 17
100 100 100 100 100 100 83 99 100 100 90 84 69 98 100 89 5 52 100 100 100 97 100 97 100 94 44

GFSFLT2_prec_cloud_081.txt.gz
Cloud_Cover
100 100 100 100 100 100 100 100 100 100 100 100 100 100 100 100 100 100 100 100 98 99 100 100 100 100 100
100 100 100 100 100 100 100 100 100 100 100 100 100 100 100 100 100 100 100 100 100 100 100 100 100 100 100
100 100 100 100 100 100 100 100 100 100 100 100 100 100 100 100 97 68 71 64 44 38 30 10 21 18 59
100 100 96 87 99 84 78 100 67 52 48 100 97 92 100 67 47 88 100 56 31 65 98 99 99 100 100
100 96 81 100 96 45 85 99 76 40 76 60 42 48 18 7 5 10 41 72 80 83 93 98 100 100 100
100 90 91 100 100 100 100 100 100 100 100 91 100 100 97 99 61 14 5 5 56 99 100 100 100 100 100
34 81 95 99 94 68 89 84 70 57 70 14 16 7 5 1 0 5 5 5 10 84 100 92 100 100 100
5 5 5 5 5 5 5 5 5 5 5 41 5 5 5 1 2 5 5 5 5 8 16 57 98 100 100
5 5 43 82 94 45 7 5 12 5 5 7 5 5 5 4 4 1 5 5 5 5 50 96 100 100 100
0 0 0 4 5 5 21 5 73 56 8 85 94 79 66 5 5 5 5 3 5 5 6 32 99 100 96
0 4 5 5 5 5 37 90 100 100 99 100 96 100 100 97 10 5 5 5 5 5 5 5 7 66 100
5 6 8 78 99 100 100 100 100 100 100 100 100 100 100 96 96 5 5 5 5 16 5 5 5 8 54
5 16 100 100 100 100 100 100 100 91 11 85 99 100 100 99 97 69 16 63 50 35 85 49 58 86 99
61 100 100 100 100 100 100 100 98 7 5 15 97 93 74 92 96 100 100 100 80 60 79 71 100 100 100
100 100 100 100 96 100 100 96 96 83 40 5 5 5 8 8 100 100 84 96 92 65 61 99 100 100 100
100 100 100 100 100 100 100 97 98 83 72 5 5 44 79 19 19 84 60 100 99 65 100 100 100 96 88
100 100 100 100 100 89 38 69 97 92 59 5 26 95 100 93 7 84 100 63 100 100 100 100 100 100 100

GFSFLT2_prec_cloud_084.txt.gz
Cloud_Cover
100 100 100 100 100 100 100 100 100 100 100 100 100 100 100 100 100 100 100 100 100 100 100 100 100 100 100
100 100 100 100 100 100 100 100 100 70 91 100 100 100 100 100 100 58 100 100 100 100 100 100 100 100 100
100 100 100 100 100 100 99 76 22 59 72 100 94 100 100 96 96 89 100 100 100 100 100 100 100 99 100
100 100 92 100 100 59 17 4 7 56 100 94 95 99 100 83 25 5 53 30 13 36 12 54 61 100 100
40 12 32 5 5 5 5 5 5 12 26 14 5 5 4 1 0 1 4 5 5 17 8 83 96 100 100
74 6 5 5 5 5 5 5 26 5 5 5 5 5 4 5 2 5 5 5 10 91 38 85 100 100 100
5 5 5 5 5 5 5 33 6 5 5 5 5 5 5 0 2 5 16 10 34 99 91 99 96 99 89
5 4 5 3 5 5 7 5 5 5 5 67 5 5 5 1 4 5 5 6 10 10 48 87 100 100 94
4 5 7 63 94 91 19 5 5 5 5 13 5 7 5 5 5 4 2 5 5 5 39 95 98 100 100
2 0 2 4 6 5 5 9 74 38 5 93 88 52 26 5 5 5 4 2 5 5 5 26 97 93 95
4 5 5 5 5 5 24 82 98 92 57 99 89 98 94 45 5 5 5 5 5 5 5 5 5 78 100
7 6 5 5 94 100 100 100 100 97 98 100 100 92 98 99 95 6 5 5 5 5 5 5 5 15 74
5 16 66 100 100 100 100 100 100 100 81 51 52 40 93 100 100 98 98 92 70 9 7 5 5 36 67
42 87 100 100 100 100 100 100 100 26 5 5 5 24 92 98 98 100 100 100 37 6 19 5 18 38 79
98 100 100 100 100 100 100 100 97 100 80 5 5 5 5 48 100 99 100 100 66 9 16 55 12 100 100
100 100 100 100 100 100 100 95 98 94 92 11 5 60 58 41 20 70 78 62 5 17 100 97 98 100 100
100 100 100 100 100 98 83 84 98 81 54 7 78 99 100 93 5 5 60 5 22 74 81 99 100 56 100

GFSFLT2_prec_cloud_087.txt.gz
Cloud_Cover
100 100 100 100 100 100 100 100 100 100 100 100 71 79 56 58 97 100 100 85 100 100 100 100 100 100 100
100 99 100 100 100 100 100 100 100 64 14 18 5 5 17 40 31 11 57 99 100 100 100 97 100 100 100
87 47 100 100 100 100 96 61 67 19 2 0 0 1 5 5 5 5 10 13 55 42 89 88 98 98 92
100 88 62 62 25 40 15 1 0 0 0 0 4 0 4 5 5 5 5 5 5 5 5 11 63 72 100
24 6 14 5 5 5 1 5 3 5 5 5 5 5 4 3 0 0 5 5 5 6 24 73 86 88 100
97 6 5 5 5 5 6 11 6 5 5 5 5 5 4 5 2 5 5 5 6 19 34 82 100 100 100
5 5 5 5 5 5 6 46 22 5 5 5 5 5 5 0 1 5 8 22 15 19 6 13 42 77 100
5 5 5 5 5 5 5 5 5 5 5 71 5 5 5 3 5 5 11 5 5 5 5 23 97 96 97
5 5 5 9 53 11 51 47 5 5 5 8 6 6 5 5 5 4 5 1 5 5 31 91 100 100 100
5 5 5 6 14 5 5 38 69 42 5 44 34 20 31 5 5 5 2 0 5 5 8 39 98 100 100
5 5 5 5 5 14 27 82 100 100 79 100 100 100 96 65 9 6 5 5 5 5 5 6 10 78 100
8 10 9 14 16 96 100 100 100 100 98 100 100 100 100 100 98 8 10 51 5 5 5 5 5 20 100
28 49 52 98 100 100 100 100 100 100 100 100 97 71 99 100 100 95 100 55 88 29 44 6 78 100 100
49 43 100 100 100 100 100 100 100 82 5 23 30 76 76 84 99 95 88 98 12 77 13 9 17 81 78
89 100 100 100 100 100 100 100 98 88 81 5 5 10 15 39 100 91 76 84 41 5 43 46 5 7 78
100 100 100 100 100 100 100 100 100 97 74 32 59 69 37 5 21 74 61 72 5 5 6 99 94 31 100
100 100 100 100 98 100 98 100 97 73 31 9 93 100 100 99 5 6 5 32 5 14 39 84 86 72 100

GFSFLT2_prec_cloud_090.txt.gz
Cloud_Cover
100 100 99 98 100 98 100 100 100 100 100 100 100 96 24 5 11 6 5 5 5 5 7 100 100 100 100
100 100 100 100 99 100 98 100 100 100 100 96 7 5 5 4 5 5 5 4 5 8 94 8 6 6 32
99 43 50 75 83 93 100 96 83 40 24 4 0 1 4 5 5 5 4 5 5 5 5 5 5 5 30
28 95 93 70 34 13 6 4 0 0 0 0 2 3 1 0 5 5 5 5 5 5 3 5 63 97 84
19 6 14 5 5 5 5 5 3 5 5 5 5 5 4 4 2 1 3 5 5 5 9 46 95 93 97
94 6 5 6 40 5 5 5 5 5 5 5 5 5 4 5 0 5 5 5 10 92 100 100 100 94 100
5 5 15 28 29 5 5 30 5 5 5 5 5 5 4 0 3 5 7 48 47 5 5 14 98 99 100
5 5 35 19 5 5 5 5 5 5 5 74 5 5 5 5 5 7 84 8 6 5 5 19 81 98 100
5 5 6 32 17 5 37 51 9 5 5 7 5 10 5 5 5 4 9 5 5 5 5 21 26 99 100
5 5 31 45 12 5 5 40 73 52 10 75 39 12 32 5 5 5 5 0 5 5 6 52 85 98 100
5 17 58 6 5 8 24 72 100 100 79 97 83 84 90 63 5 5 5 5 4 5 5 5 15 80 100
8 66 21 15 31 79 99 100 100 90 97 100 97 91 100 100 89 8 5 5 5 5 5 5 5 5 5
57 58 37 75 100 100 100 100 100 100 99 100 100 100 100 100 100 89 90 10 6 29 13 7 5 5 34
59 20 77 100 100 100 100 100 97 55 5 29 62 89 99 89 88 91 87 92 18 12 5 5 5 6 7
48 96 100 100 100 100 100 100 99 93 67 6 5 14 71 100 92 60 58 35 5 5 36 62 5 5 5
21 84 100 100 100 100 100 100 100 75 78 59 67 66 47 49 36 68 56 75 5 5 10 87 47 5 5
46 58 100 100 100 100 100 100 100 92 27 58 94 100 100 99 100 23 79 13 44 5 5 23 86 6 5

GFSFLT2_prec_cloud_093.txt.gz
Cloud_Cover
100 100 100 69 71 69 100 99 92 94 92 100 100 100 100 34 5 5 5 5 5 5 2 13 60 100 59
100 100 100 69 81 96 89 100 44 100 100 70 97 31 5 3 5 5 5 5 0 2 5 9 50 41 67
100 100 100 78 68 96 98 100 91 49 26 5 5 0 2 5 5 5 4 5 5 5 5 5 5 7 32
100 97 99 93 88 37 5 5 5 5 5 5 1 3 4 4 2 5 4 5 5 5 5 5 17 42 84
78 93 62 19 4 2 1 3 5 6 5 5 5 0 0 0 0 0 0 5 5 5 5 8 25 100 82
100 100 8 5 5 3 4 5 36 30 5 5 2 4 0 0 0 5 5 5 5 56 100 53 14 5 71
100 91 5 5 5 5 4 15 20 9 5 5 0 0 0 0 2 5 5 20 94 35 6 5 7 17 90
52 29 4 5 4 5 6 41 69 6 5 5 5 2 1 4 4 20 90 95 6 5 5 5 8 12 9
5 5 6 18 5 5 25 63 21 5 5 5 5 5 5 4 0 5 28 12 5 5 29 6 23 75 54
4 8 6 19 32 21 24 32 6 5 13 49 53 39 5 5 0 0 1 0 5 5 38 35 47 36 55
74 57 50 72 26 36 62 18 72 91 68 96 93 79 79 73 5 5 5 4 5 5 38 49 6 42 60
100 100 38 27 38 56 23 84 90 96 89 96 98 97 100 99 90 12 6 6 6 5 5 5 5 5 5
22 5 24 18 24 83 100 100 100 100 97 100 99 100 100 100 92 67 78 5 5 18 5 6 5 5 6
9 16 8 75 100 100 100 100 100 77 5 5 5 30 91 90 95 92 62 71 7 5 72 73 26 14 5
53 9 74 100 100 100 100 98 100 99 85 63 5 19 77 79 90 59 66 72 38 70 73 73 6 5 5
24 32 61 85 99 99 100 99 100 100 95 96 90 74 64 34 5 5 20 80 21 68 75 94 63 5 5
5 21 60 67 77 96 100 100 98 100 94 98 96 100 100 97 63 67 70 83 78 46 72 89 94 7 5

GFSFLT2_prec_cloud_096.txt.gz
Cloud_Cover
100 100 100 100 100 100 100 100 100 91 98 88 88 60 33 100 39 10 5 5 5 5 6 27 46 93 98
100 100 100 100 100 100 100 100 71 81 65 100 81 8 5 5 1 3 5 5 5 4 5 26 33 90 100
100 100 100 100 100 100 100 100 100 76 72 5 5 2 5 2 5 0 5 5 5 5 5 5 5 5 9
100 100 100 100 100 100 100 100 100 86 19 5 0 4 5 2 3 5 4 5 5 5 5 5 9 16 18
100 100 100 100 100 100 100 100 45 15 5 4 0 5 5 5 5 0 0 5 5 5 5 5 4 14 28
100 100 100 100 100 100 100 51 15 5 5 5 5 5 9 5 3 1 5 5 5 5 2 5 6 5 0
100 100 100 100 100 100 62 13 5 23 51 6 8 5 5 5 0 5 4 5 6 5 6 6 5 5 17
100 100 100 100 94 35 5 17 64 99 50 10 5 5 5 0 0 5 5 14 19 13 5 5 5 5 2
100 100 100 85 27 5 86 100 100 96 22 5 5 5 5 5 2 5 5 19 9 5 5 5 5 8 5
100 82 21 20 25 90 100 85 71 54 44 52 67 38 29 5 5 5 5 5 5 5 5 5 5 5 5
52 5 10 97 92 34 13 54 97 91 98 94 100 100 96 76 5 5 5 5 5 5 5 5 5 8 5
5 9 71 40 88 80 84 69 100 97 95 100 98 98 100 100 75 19 46 17 13 6 13 5 5 5 5
5 5 60 100 42 48 39 36 76 71 98 100 96 100 100 100 97 82 88 36 21 42 26 62 57 60 5
6 76 75 94 87 100 100 100 100 100 97 9 33 78 82 98 100 100 83 90 34 56 64 99 72 76 78
5 36 85 88 93 100 100 100 100 100 100 100 100 99 96 95 93 55 22 43 67 58 95 77 95 72 78
5 66 97 89 87 100 100 100 100 100 100 100 100 100 86 56 22 47 19 80 66 98 100 100 90 98 93
5 58 81 83 97 100 97 100 100 97 99 100 100 100 98 53 5 6 65 70 83 86 71 96 76 64 100

GFSFLT2_prec_cloud_099.txt.gz
Cloud_Cover
100 100 76 100 84 100 100 100 100 100 100 100 100 100 98 17 5 5 24 5 5 5 5 3 0 0 4
100 100 100 99 100 90 100 100 100 100 100 100 100 100 5 5 5 3 1 2 5 5 5 5 1 11 35
100 100 100 100 100 100 100 100 100 100 100 100 58 8 5 5 4 5 5 5 5 5 5 4 5 5 11
100 100 100 100 100 100 100 100 100 100 100 100 14 5 5 5 19 48 37 5 5 5 5 6 8 10 5
100 100 100 100 100 100 100 100 100 100 100 71 5 5 11 88 100 100 32 5 5 5 5 5 5 27 17
99 100 100 100 100 100 100 100 100 100 25 5 47 100 100 100 100 55 5 5 5 5 5 11 5 5 5
100 100 100 100 100 100 94 54 99 48 9 99 100 100 83 21 5 5 5 5 5 5 5 5 4 5 4
100 100 100 100 100 76 52 100 59 10 91 100 90 73 10 5 5 5 5 6 21 15 5 6 5 5 6
100 100 100 100 90 68 85 6 78 100 94 19 20 5 5 5 5 5 5 5 8 19 6 5 5 5 5
100 100 100 99 61 92 5 70 64 90 26 7 30 16 7 5 5 5 5 5 5 5 5 5 5 5 5
100 100 100 90 28 5 5 59 100 98 33 7 89 100 91 76 5 5 5 5 5 4 5 5 5 38 100
100 100 90 6 5 14 39 34 85 82 92 89 76 95 100 100 77 5 5 5 4 5 5 5 10 20 77
100 44 5 7 69 60 6 6 11 28 73 92 93 100 100 100 100 95 96 5 5 5 5 93 93 6 5
5 5 6 99 24 88 100 100 100 100 98 100 37 78 100 100 100 98 100 77 5 5 26 100 100 71 7
5 5 5 6 86 100 100 100 100 100 99 99 100 97 100 100 100 93 76 30 36 87 100 100 97 33 5
5 22 33 5 21 79 100 100 100 100 100 100 100 99 100 59 15 85 79 52 5 49 44 88 20 5 26
44 65 41 5 67 6 11 7 85 84 60 94 100 100 100 98 5 4 30 5 88 29 5 21 84 5 32

GFSFLT2_prec_cloud_102.txt.gz
Cloud_Cover
100 100 100 100 100 100 100 100 100 100 100 100 100 100 100 100 100 100 100 5 5 6 5 5 5 3 0
100 100 100 100 100 100 100 100 100 100 100 100 100 100 100 100 100 100 5 5 50 76 5 4 4 6 20
100 100 100 100 97 97 100 100 100 100 100 100 100 100 94 86 97 5 5 37 95 12 5 5 5 5 7
100 65 76 100 100 100 100 100 100 100 100 100 100 100 18 7 32 5 49 100 39 5 5 5 5 5 5
90 99 100 100 100 100 100 100 100 100 100 100 72 17 10 5 28 96 59 8 5 5 5 5 5 10 14
96 100 100 98 100 100 100 100 100 100 100 10 7 5 16 25 10 5 5 5 5 5 5 3 5 5 12
100 99 98 100 100 100 100 100 100 96 13 98 19 5 5 5 5 5 5 4 5 5 6 5 5 5 4
97 100 100 100 100 100 100 100 100 94 83 31 5 6 22 5 5 5 1 5 6 33 7 9 21 6 5
100 100 100 100 100 100 100 100 97 99 9 5 42 10 5 5 3 5 5 4 10 20 17 5 5 7 5
100 100 100 100 100 100 82 100 44 5 7 5 5 13 32 5 5 0 2 4 5 5 5 5 5 5 5
100 100 100 100 99 100 100 63 7 11 9 24 55 85 52 23 6 6 5 5 5 5 5 5 5 28 16
100 100 100 99 100 99 53 6 14 53 46 38 43 73 94 71 18 6 5 5 5 5 5 5 5 6 25
100 100 99 100 100 78 15 5 6 6 66 100 80 96 88 75 57 58 93 19 5 7 6 6 6 51 47
100 100 100 100 89 18 70 100 100 100 99 100 100 94 98 100 100 100 100 84 18 5 6 90 100 100 97
100 100 100 90 9 33 98 100 100 100 100 99 100 99 98 98 96 100 100 94 7 5 38 92 30 5 5
100 100 58 22 32 54 17 79 87 97 91 91 91 98 91 39 26 96 100 100 34 5 6 29 5 5 5
100 39 14 44 37 69 62 63 65 52 29 45 77 91 96 87 5 5 46 87 87 90 22 8 6 5 5

GFSFLT2_prec_cloud_105.txt.gz
Cloud_Cover
100 91 100 100 100 100 98 100 100 100 100 100 100 100 100 100 100 100 100 95 21 5 5 5 49 50 32
100 98 100 98 100 100 100 100 100 100 100 100 100 100 100 100 100 100 100 97 6 54 9 95 8 4 5
100 100 100 100 100 100 100 100 99 96 97 100 100 100 100 100 100 100 89 29 88 5 5 5 4 4 4
100 100 100 100 100 100 100 100 100 82 100 100 100 100 100 100 98 67 46 34 5 5 5 5 5 5 6
100 100 72 42 43 82 99 100 100 100 100 100 100 100 100 70 97 59 5 5 5 5 5 4 5 5 9
99 98 68 83 100 100 97 73 100 100 100 100 100 100 100 95 40 5 5 4 5 5 5 5 6 5 5
99 42 28 18 31 100 100 100 100 100 100 100 100 92 64 39 5 5 1 0 5 5 5 14 5 5 7
91 5 4 85 100 100 100 100 100 100 100 100 73 79 33 5 4 1 5 3 6 14 55 16 8 18 5
47 36 100 100 100 100 100 100 100 100 100 90 90 37 5 5 0 1 5 5 15 92 45 20 5 6 6
100 88 93 99 100 100 100 100 100 100 100 86 44 15 10 5 5 5 5 5 5 5 5 5 37 6 5
100 100 100 100 100 100 100 100 100 100 98 67 54 6 53 22 7 8 5 5 5 5 5 5 5 46 16
100 100 100 100 100 100 100 100 100 99 96 54 54 37 67 76 55 25 6 5 12 5 5 5 5 5 5
100 100 100 100 100 100 100 100 100 91 60 59 61 56 76 91 73 33 89 16 6 39 19 8 5 5 5
100 100 100 100 100 100 100 100 100 60 98 100 94 100 100 100 100 99 100 84 60 38 10 14 6 5 5
100 100 100 100 100 100 100 100 99 100 100 100 100 100 96 91 89 69 98 100 100 54 43 17 7 5 5
100 100 100 100 100 100 100 100 92 94 98 94 98 99 84 24 28 57 100 100 93 46 91 100 55 5 5
100 100 100 100 100 100 100 89 94 72 63 67 89 98 100 96 35 5 46 82 76 61 6 13 5 5 5

GFSFLT2_prec_cloud_108.txt.gz
Cloud_Cover
100 100 100 100 100 100 100 100 100 100 100 100 100 95 100 100 100 100 100 100 100 100 49 31 5 5 5
100 100 100 100 100 100 100 100 100 100 100 100 31 100 100 100 100 100 100 100 100 74 7 5 5 0 3
100 100 100 100 100 100 100 100 100 100 95 72 100 100 100 100 100 100 100 100 88 16 5 0 0 3 4
100 100 100 100 100 100 100 100 100 61 10 100 100 100 100 100 100 100 100 66 5 5 3 1 1 4 5
100 100 100 100 100 100 100 100 29 69 100 95 99 100 100 100 100 100 61 5 5 5 5 5 5 5 3
100 100 100 100 100 96 59 35 77 47 100 100 100 100 100 100 100 97 12 5 5 5 5 13 5 5 5
100 100 100 100 100 47 44 18 8 84 100 100 100 100 100 100 100 67 5 5 5 5 6 6 12 5 5
100 100 100 100 64 39 32 52 100 100 100 100 100 100 100 100 94 5 5 3 4 9 5 9 14 5 39
100 100 100 74 23 70 97 100 82 100 100 100 100 100 100 99 20 5 2 4 15 80 69 16 29 28 8
100 100 97 100 98 100 100 100 100 100 100 100 100 100 100 61 6 5 5 5 5 26 34 35 17 19 5
100 100 100 100 100 100 100 100 100 100 100 100 100 100 97 47 7 10 5 5 5 5 5 5 5 15 5
94 95 100 100 100 100 100 100 100 100 100 100 100 100 82 81 32 6 7 9 11 5 5 5 5 5 5
100 100 100 100 100 100 100 100 100 100 100 100 100 100 65 72 70 69 6 6 18 54 22 8 6 5 14
100 100 100 100 100 100 100 100 100 100 100 100 100 100 83 99 89 74 77 57 60 66 67 15 6 5 6
100 100 100 100 100 100 100 100 100 100 100 100 100 100 83 80 80 43 40 69 100 90 58 62 12 5 5
100 100 100 100 100 100 100 100 100 100 100 100 100 100 100 87 78 73 76 94 100 86 96 95 50 5 20
100 100 100 100 100 100 100 100 100 100 100 100 100 100 100 100 100 43 70 100 100 100 100 97 100 24 11

GFSFLT2_prec_cloud_111.txt.gz
Cloud_Cover
100 100 100 100 100 100 100 100 100 100 100 100 100 100 100 100 100 100 100 100 100 100 100 100 100 100 4
100 100 100 100 100 100 100 100 100 100 100 100 100 100 100 100 100 100 100 100 100 100 100 100 100 10 1
100 100 100 100 100 100 100 100 100 100 99 100 98 29 74 100 100 100 100 100 100 100 100 100 38 4 3
100 100 100 100 100 100 100 100 100 100 100 25 5 15 80 100 100 100 100 100 100 100 100 82 5 1 2
100 100 100 100 100 100 100 100 100 100 81 42 5 12 74 100 100 100 100 100 100 100 97 5 4 0 4
100 100 100 100 100 100 100 100 100 86 12 11 4 18 94 100 100 100 100 100 100 99 7 5 6 5 5
100 100 100 100 100 100 100 100 93 15 6 4 12 100 100 100 100 100 100 100 100 21 5 12 17 21 5
100 100 100 100 100 100 100 100 83 72 86 96 89 100 100 100 100 100 100 100 70 5 5 8 20 44 6
100 100 100 100 100 100 100 86 88 100 90 100 100 100 100 100 100 100 100 98 42 16 55 82 65 94 52
100 100 100 100 100 100 98 100 99 58 100 100 100 100 100 100 100 100 100 100 38 100 100 100 78 53 55
100 100 100 100 100 100 100 100 100 100 100 100 100 100 100 100 100 100 100 83 6 5 25 5 5 5 5
100 100 98 45 100 100 100 100 100 100 100 100 100 100 100 100 100 100 100 62 12 5 5 6 6 5 5
83 49 98 70 85 100 100 100 100 100 100 100 100 100 100 100 100 100 100 58 45 43 54 55 52 7 13
99 100 72 90 98 100 100 100 100 100 100 100 100 100 100 100 100 100 100 99 95 73 70 46 22 5 44
100 100 100 93 100 100 100 100 100 100 100 100 100 100 100 100 100 100 100 84 98 96 82 72 9 5 98
100 100 100 100 100 100 100 100 100 100 100 100 100 100 100 100 100 100 100 94 88 96 95 92 58 5 81
100 100 100 100 100 100 100 100 100 100 100 100 100 100 100 100 100 100 100 85 70 71 41 77 100 86 59

GFSFLT2_prec_cloud_114.txt.gz
Cloud_Cover
100 100 100 100 100 100 100 100 100 100 100 100 100 100 100 100 100 100 100 100 100 100 99 100 100 92 100
100 100 100 100 100 100 100 100 100 100 100 100 100 80 100 100 100 100 100 100 99 100 100 100 100 100 100
100 100 100 100 100 100 100 96 100 100 100 94 100 100 77 96 76 10 54 90 95 100 100 100 100 100 93
100 100 100 100 100 100 100 100 100 100 100 84 96 37 5 13 6 5 79 100 82 100 100 100 100 100 16
100 100 100 100 100 84 100 100 100 100 100 98 97 41 5 7 99 5 100 100 100 100 100 100 100 63 5
100 100 100 100 100 100 100 100 100 93 98 100 100 18 10 79 81 91 100 100 100 100 100 100 100 5 5
100 100 100 100 100 100 100 100 100 100 100 100 59 24 6 100 100 100 100 100 100 100 100 100 55 92 7
100 100 100 100 100 100 100 100 100 100 100 100 74 13 23 100 100 100 100 100 100 100 100 68 99 82 10
100 100 100 100 100 100 100 100 100 100 100 100 86 46 100 100 100 100 100 100 100 100 100 100 74 93 18
100 100 100 100 100 100 100 100 100 100 100 98 62 99 100 100 100 100 100 100 100 100 100 81 100 84 6
100 100 100 100 100 100 100 100 100 80 18 100 100 100 100 100 100 100 100 100 100 100 100 100 94 40 5
100 100 100 100 100 100 99 70 81 99 100 100 100 100 100 100 100 100 100 100 100 100 100 100 100 53 30
100 100 98 86 97 60 98 99 100 100 100 100 100 100 100 100 100 100 100 100 100 100 100 100 86 63 92
89 97 92 98 71 100 83 85 97 100 100 100 100 100 100 100 100 100 100 100 100 100 100 100 96 96 100
61 90 98 99 67 96 93 100 100 100 100 100 100 100 100 100 100 100 100 100 100 100 100 100 100 100 100
96 86 90 99 100 97 91 89 93 99 100 100 100 100 100 100 100 100 100 100 100 100 100 100 94 100 100
90 100 99 100 100 100 100 100 100 100 100 100 100 100 100 100 100 100 100 100 100 100 100 100 100 100 100

GFSFLT2_prec_cloud_117.txt.gz
Cloud_Cover
100 100 100 100 100 100 100 100 100 100 100 100 100 100 100 100 100 100 100 100 100 100 100 100 100 100 99
100 100 81 99 90 96 100 100 100 85 98 100 96 100 100 100 100 100 100 100 100 100 100 96 74 85 100
100 98 100 100 100 100 100 100 100 100 87 97 100 62 100 98 100 100 100 100 100 100 100 100 100 100 100
100 100 100 100 100 100 100 100 100 100 100 100 100 100 100 81 55 35 59 95 94 100 99 100 100 100 100
100 100 100 100 100 100 100 100 100 100 100 100 100 91 100 29 50 54 100 66 100 96 100 100 100 100 100
100 100 100 100 100 100 100 100 100 100 100 100 100 100 100 100 75 4 7 58 100 100 100 100 100 100 100
99 100 100 100 100 100 100 100 100 100 100 100 100 100 100 100 49 5 24 100 100 100 100 100 100 100 100
19 28 80 100 100 100 100 100 100 100 100 100 100 100 100 100 100 55 100 100 100 100 100 100 100 100 100
8 25 95 100 100 100 100 100 100 100 100 100 100 100 100 100 100 100 100 100 100 100 100 100 100 100 100
13 56 98 100 100 100 100 100 100 100 100 100 100 100 100 100 100 100 100 100 100 100 100 100 100 100 100
23 65 100 100 100 100 100 100 100 100 100 100 100 100 100 100 100 100 100 100 100 100 100 100 100 100 100
8 37 100 96 100 100 100 100 100 100 100 79 53 100 100 100 100 100 100 100 100 100 100 100 100 100 100
5 5 75 78 73 73 81 88 88 88 71 94 100 100 100 100 100 100 100 100 100 100 100 100 100 100 100
5 5 5 16 5 31 21 98 10 84 100 100 100 100 100 100 100 100 100 100 100 100 100 100 100 100 100
5 5 5 5 15 81 80 85 94 99 100 97 100 100 100 100 100 100 100 100 100 100 100 100 100 100 100
5 5 5 5 41 100 100 100 100 100 100 100 100 100 100 100 100 100 100 100 100 100 100 100 100 100 100
5 5 5 38 74 100 100 100 100 100 100 100 100 100 100 100 100 100 100 100 100 100 100 99 72 91 100

GFSFLT2_prec_cloud_120.txt.gz
Cloud_Cover
99 91 98 100 100 100 97 100 100 97 100 100 100 100 100 98 100 100 100 100 81 88 100 99 100 100 100
46 49 35 92 100 58 96 100 100 100 100 100 100 100 100 100 99 100 100 100 100 100 100 100 100 100 100
96 100 100 100 100 93 99 100 100 100 100 100 100 100 100 100 93 61 56 64 100 100 100 100 99 100 100
100 100 100 100 100 100 100 100 100 100 100 100 100 100 100 96 100 93 91 74 97 100 100 100 100 99 100
100 99 100 100 100 98 100 100 100 100 100 100 100 100 100 100 100 100 100 92 99 100 100 100 100 100 100
100 100 93 100 100 100 100 100 100 100 100 100 100 100 100 100 100 100 100 100 5 91 100 100 100 100 100
89 99 96 97 100 100 100 100 100 100 100 100 100 100 100 100 100 100 100 100 82 62 100 100 100 100 100
33 47 60 74 88 100 100 100 100 100 100 100 100 100 100 100 100 100 100 100 100 100 100 100 100 100 100
6 9 64 67 61 100 100 100 100 100 100 100 100 100 100 100 100 100 100 100 100 100 100 100 100 100 100
100 18 41 80 79 94 91 100 100 100 100 100 100 100 100 100 100 100 100 100 100 100 100 100 100 100 100
95 31 5 11 44 68 100 100 100 100 100 100 100 100 100 100 89 99 100 100 100 100 100 100 100 100 100
27 25 12 13 5 6 28 81 100 100 100 100 100 98 92 86 86 80 98 100 100 100 100 100 100 100 100
61 10 5 5 32 29 47 43 81 91 68 72 100 76 54 47 100 100 100 100 100 100 100 100 100 100 100
5 5 5 5 5 12 16 27 22 49 56 59 67 26 56 89 100 100 100 100 100 100 100 100 100 100 100
18 5 5 5 5 24 28 33 5 8 54 100 75 90 94 100 100 100 100 100 100 100 100 100 100 100 100
89 17 5 5 7 41 37 30 10 6 40 98 94 100 96 100 100 100 100 100 100 100 100 100 100 100 100
100 61 5 8 5 18 26 16 5 48 77 89 95 73 100 100 100 100 100 100 100 100 100 100 100 100 100